STARLINK-34358

Last updated on Thu Jul 03 2025 00:02:06 GMT+0000 (Coordinated Universal Time)

1 64313U 25123Y 25183.58335648 -.01592243 00000+0 -30601-1 0 9999 2 64313 69.9999 120.0640 0003127 271.3580 335.3484 15.50749016 4969
UTC large
Height (km)
Speed (km/s)
/
Latitude / Longitude
Inclination (degrees)
Orbital Period (minutes)
Azimuth
Elevation
Range (km)
Doppler Factor

Next 0 passes for location: London (51.5072 / 0.1276)

Sorry there are no passes over London.